Flag for U.S.A. Weather past 2 weeks in Wheaton, Illinois, U.S.A.

Now
29 °F

Clear.


Feels Like: 21 °F
Forecast: 26 / 44 °F
Wind: 8 mph from Southeast

Location: Dupage Airport

Current Time: Mar 28, 2015 at 10:39:57 PM

Latest Report: Mar 28, 2015 at 9:52 PM


Visibility: 10 mi

Pressure: 30.29 "Hg

Humidity: 47%

Dew point: 11 °F

Location of WheatonLocation

Historic Weather in Wheaton — Graph

°F

Wheaton temperature yesterday

Maximum temperature yesterday: 34 °F (at 4:52 PM)
Minimum temperature yesterday: 20 °F (at 9:52 PM)
Average temperature yesterday: 27 °F

Past Weeks' High & Low Weather Summary

 TemperatureHumidityPressure
High72 °F (Mar 16, 3:52 PM)97% (Mar 21, 5:52 AM)30.36 "Hg (Mar 21, 5:52 AM)
Low14 °F (Mar 28, 4:52 AM)21% (Mar 18, 12:52 PM)29.74 "Hg (Mar 16, 5:52 PM)
Average38 °F63%30.14 "Hg
* Reported Mar 13 8:52 PM — Mar 28 8:52 PM, Wheaton, Weather by CustomWeather, © 2015

Note: Actual official high and low records may vary slightly from our data, if they occured in-between our weather recording intervals... More about our weather records

Advertising

Wheaton weather history for previous 24 hours

 ConditionsComfort  
Time TempWeatherWind HumidityBarometerVisibility
8:52 PM
Sat, Mar 28
30 °FClear.6 mph41%30.30 "Hg10 mi
7:52 PM33 °FSunny.8 mph36%30.29 "Hg10 mi
6:52 PM35 °FSunny.8 mph31%30.29 "Hg10 mi
5:52 PM39 °FSunny.6 mph25%30.29 "Hg10 mi
4:52 PM39 °FSunny.5 mph24%30.30 "Hg10 mi
3:52 PM39 °FSunny.6 mph24%30.31 "Hg10 mi
2:52 PM37 °FSunny.7 mph24%30.32 "Hg10 mi
1:52 PM36 °FSunny.6 mph27%30.33 "Hg10 mi
12:52 PM35 °FSunny.6 mph29%30.35 "Hg10 mi
11:52 AM34 °FSunny.9 mph34%30.36 "Hg10 mi
10:52 AM32 °FSunny.7 mph38%30.36 "Hg10 mi
9:52 AM30 °FSunny.9 mph51%30.36 "Hg10 mi
8:52 AM26 °FSunny.7 mph71%30.34 "Hg10 mi
7:52 AM21 °FSunny.6 mph81%30.32 "Hg10 mi
6:52 AM16 °FClear.3 mph80%30.30 "Hg10 mi
5:52 AM15 °FClear.3 mph80%30.28 "Hg10 mi
4:52 AM14 °FClear.5 mph87%30.26 "Hg10 mi
3:52 AM17 °FClear.No wind76%30.25 "Hg10 mi
2:52 AM17 °FClear.6 mph76%30.25 "Hg10 mi
1:52 AM18 °FClear.No wind74%30.25 "Hg10 mi
12:52 AM19 °FClear.5 mph74%30.24 "Hg10 mi
11:52 PM
Fri, Mar 27
20 °FClear.5 mph71%30.24 "Hg10 mi
10:52 PM20 °FClear.5 mph71%30.24 "Hg10 mi
Weather by CustomWeather, © 2015

See weather overviewHow to use our weather pages